Location: Barcelona
(41.3830°N, 2.1830°E)
Time: 22:52:50
(UTC+02:00)

ISS - Pass Details

Date: 18 July 2017
Orbit: 400 x 408 km, 51.6° (Epoch: 24 July)

Event Time Altitude Azimuth Distance (km) Brightness Sun altitude
Rises 04:34:30 0° 302° (WNW) 2,314 0.0 -17.8°
Reaches altitude 10° 04:37:22 10° 330° (NNW) 1,457 -0.8 -17.5°
Maximum altitude 04:39:09 14° 3° (N) 1,251 -0.6 -17.2°
Drops below altitude 10° 04:40:55 10° 36° (NE) 1,458 0.3 -17.0°
Sets 04:43:48 0° 64° (ENE) 2,320 1.3 -16.7°
